Tracking 19644 objects as of 24-Apr-2019
HD Live streaming from Space Station
objects crossing your sky now

SL-6 R/B(2)

Track SL-6 R/B(2) now!


NORAD ID: 15830
Int'l Code: 1985-049D
Perigee: 2,622.4 km
Apogee: 38,093.1 km
Inclination: 65.6 °
Period: 724.8 minutes
Semi major axis: 26728 km
RCS: 4.521 m2 (large)
Launch date: June 18, 1985
Source: Commonwealth of Independent States (former USSR) (CIS)
Launch site: PLESETSK MISSILE AND SPACE COMPLEX (PKMTR)

Note: This is a ROCKET BODY
aabbcc
Your satellite tracking list
Your tracking list is empty




NASA's NSSDC Master Catalog

Two Line Element Set (TLE):
1 15830U 85049D   19113.46268866 -.00000980 +00000-0 +00000-0 0  9992
2 15830 065.5502 329.5402 6635323 051.5814 351.3414 01.98671437245366
Source of the keplerian elements: AFSPC